User: anonymous   Login
Location: Cella
(44.7333°N, 10.5667°E)
Time: 01:06:57
(UTC+00:00)
Language:

Cosmos 2341 Rocket - Orbit

View from above orbital plane
View from above orbital plane
View from above satellite
View from above satellite

Ground track
Ground track

The orbit data is extracted from the following two-line orbital elements,

1 24773U 97017B   21137.65783903  .00000055  00000-0  42514-4 0  9992
2 24773  82.9245  33.2683 0023111 284.8630 136.1937 13.73657813207282
Epoch (UTC): 17 May 2021 15:47:17
Eccentricity: 0.0023111
inclination: 82.9245°
perigee height: 969 km
apogee height: 1003 km
right ascension of ascending node: 33.2683°
argument of perigee: 284.8630°
revolutions per day: 13.73657813
mean anomaly at epoch: 136.1937°
orbit number at epoch: 20728

The dashed part of the orbit path shows where the satellite is in the earth's shadow,  

DLR